N0HOT Weather Reports


Display with metric or nautical units.
time (UTC)temp
F
wind
direction
speed
MPH
gust
MPH
rain 1hr
in
rain 24hr
in
rain mn
in
humidity
%
barometer
mb
20260509090126 52 33 1.0 1.0 0.00 0.00 0.00 44 1002.8
20260509085623 52 32 1.0 1.0 0.00 0.00 0.00 43 1002.8
20260509085119 52 33 0.0 1.0 0.00 0.00 0.00 43 1002.8
20260509084617 52 33 0.0 0.0 0.00 0.00 0.00 42 1002.8
20260509084114 53 33 0.0 0.0 0.00 0.00 0.00 41 1002.8
20260509083611 53 33 0.0 0.0 0.00 0.00 0.00 41 1002.8
20260509083107 53 33 0.0 0.0 0.00 0.00 0.00 41 1002.8
20260509082605 53 33 0.0 0.0 0.00 0.00 0.00 41 1002.5
20260509082101 53 33 0.0 0.0 0.00 0.00 0.00 40 1002.8
20260509081559 54 33 0.0 0.0 0.00 0.00 0.00 40 1002.8
20260509081055 54 32 0.0 1.0 0.00 0.00 0.00 39 1002.8
20260509080553 54 32 0.0 1.0 0.00 0.00 0.00 39 1003.2
20260509080052 54 32 0.0 0.0 0.00 0.00 0.00 39 1003.2
20260509075549 55 32 0.0 0.0 0.00 0.00 0.00 39 1003.2
20260509075047 55 32 0.0 0.0 0.00 0.00 0.00 38 1003.2
20260509074544 55 32 0.0 0.0 0.00 0.00 0.00 37 1003.2
20260509074040 56 32 0.0 0.0 0.00 0.00 0.00 37 1002.8
20260509073536 56 32 0.0 0.0 0.00 0.00 0.00 36 1002.8
20260509073033 56 32 0.0 0.0 0.00 0.00 0.00 36 1002.8
20260509072530 56 32 0.0 0.0 0.00 0.00 0.00 35 1002.8
20260509072026 57 32 0.0 0.0 0.00 0.00 0.00 34 1002.5
20260509071523 57 32 0.0 0.0 0.00 0.00 0.00 34 1002.5
20260509071021 57 32 0.0 0.0 0.00 0.00 0.00 34 1002.8
20260509070518 57 33 0.0 0.0 0.00 0.00 0.00 35 1002.8
20260509070014 57 33 0.0 0.0 0.00 0.00 0.00 35 1002.8
20260509065509 57 33 0.0 1.0 0.00 0.00 0.00 35 1002.8
20260509065006 58 297 1.0 2.0 0.00 0.00 0.00 34 1002.8
20260509064504 57 253 1.0 2.0 0.00 0.00 0.00 33 1002.8
20260509064002 57 243 3.0 3.0 0.00 0.00 0.00 33 1002.8
20260509063457 58 278 1.0 1.0 0.00 0.00 0.00 35 1002.8
20260509062954 58 334 1.0 1.0 0.00 0.00 0.00 36 1002.8
20260509062451 58 266 0.0 1.0 0.00 0.00 0.00 34 1002.8
20260509061949 58 263 2.0 2.0 0.00 0.00 0.00 36 1002.8
20260509061446 59 182 1.0 1.0 0.00 0.00 0.00 34 1002.8
20260509060943 59 285 2.0 2.0 0.00 0.00 0.00 33 1002.5
20260509060441 59 290 1.0 1.0 0.00 0.00 0.00 34 1002.5
20260509055936 59 298 1.0 2.0 0.00 0.00 0.00 33 1002.5
20260509055431 59 299 1.0 1.0 0.00 0.00 0.00 33 1002.1
20260509054928 59 234 1.0 1.0 0.00 0.00 0.00 33 1002.5
20260509054424 59 282 2.0 3.0 0.00 0.00 0.00 31 1002.1
20260509053923 59 256 3.0 3.0 0.00 0.00 0.00 32 1002.1
20260509053420 59 272 2.0 2.0 0.00 0.00 0.00 32 1002.1
20260509052917 59 263 4.0 4.0 0.00 0.00 0.00 33 1002.1
20260509052414 59 214 2.0 2.0 0.00 0.00 0.00 32 1002.1
20260509051913 59 267 2.0 2.0 0.00 0.00 0.00 32 1002.1
20260509051405 60 283 1.0 2.0 0.00 0.00 0.00 34 1002.1
20260509050901 60 264 1.0 1.0 0.00 0.00 0.00 32 1001.8
20260509050358 60 275 2.0 3.0 0.00 0.00 0.00 34 1002.1
20260509045855 60 254 1.0 1.0 0.00 0.00 0.00 34 1002.1
20260509045352 60 273 1.0 2.0 0.00 0.00 0.00 33 1002.1
20260509044849 61 264 2.0 3.0 0.00 0.00 0.00 33 1002.1
20260509044347 61 256 3.0 4.0 0.00 0.00 0.00 32 1002.1
20260509043844 61 225 2.0 2.0 0.00 0.00 0.00 34 1001.8
20260509043339 61 227 3.0 4.0 0.00 0.00 0.00 34 1001.8
20260509042835 61 279 5.0 6.0 0.00 0.00 0.00 31 1001.8
20260509042332 62 270 2.0 2.0 0.00 0.00 0.00 30 1001.8
20260509041829 62 302 1.0 2.0 0.00 0.00 0.00 30 1002.1
20260509041325 62 288 1.0 1.0 0.00 0.00 0.00 30 1001.8
20260509040824 62 301 2.0 4.0 0.00 0.00 0.00 30 1001.8
20260509040321 62 285 2.0 2.0 0.00 0.00 0.00 30 1001.8
20260509035818 62 314 2.0 2.0 0.00 0.00 0.00 29 1001.8
20260509035315 63 348 0.0 1.0 0.00 0.00 0.00 29 1001.8
20260509034811 63 281 2.0 2.0 0.00 0.00 0.00 29 1001.8
20260509034309 63 313 0.0 1.0 0.00 0.00 0.00 30 1001.5
20260509033806 63 289 1.0 1.0 0.00 0.00 0.00 28 1001.5
20260509033303 63 289 2.0 2.0 0.00 0.00 0.00 27 1001.5
20260509032800 63 286 4.0 6.0 0.00 0.00 0.00 27 1001.5
20260509032257 63 353 1.0 1.0 0.00 0.00 0.00 28 1001.5
20260509031755 64 343 1.0 1.0 0.00 0.00 0.00 26 1001.5
20260509031252 64 307 2.0 2.0 0.00 0.00 0.00 26 1001.5
20260509030749 64 337 1.0 1.0 0.00 0.00 0.00 26 1001.5
20260509030247 64 333 1.0 2.0 0.00 0.00 0.00 27 1001.5
20260509025744 64 27 0.0 1.0 0.00 0.00 0.00 26 1001.5
20260509025239 64 27 0.0 0.0 0.00 0.00 0.00 25 1001.5
20260509024734 65 27 1.0 1.0 0.00 0.00 0.00 25 1001.5
20260509024231 65 27 0.0 0.0 0.00 0.00 0.00 25 1001.5
20260509023728 65 27 1.0 1.0 0.00 0.00 0.00 24 1001.5
20260509023225 66 27 0.0 0.0 0.00 0.00 0.00 24 1001.5
20260509022721 66 27 0.0 0.0 0.00 0.00 0.00 24 1001.5
20260509022219 66 3 3.0 3.0 0.00 0.00 0.00 23 1001.5
20260509021716 66 326 1.0 1.0 0.00 0.00 0.00 23 1001.1
20260509021213 67 336 1.0 1.0 0.00 0.00 0.00 23 1001.5
20260509020711 67 335 1.0 1.0 0.00 0.00 0.00 23 1001.5
20260509020208 67 318 1.0 1.0 0.00 0.00 0.00 23 1001.5
20260509015706 67 277 2.0 2.0 0.00 0.00 0.00 22 1001.5
20260509015204 67 332 0.0 1.0 0.00 0.00 0.00 23 1001.1
20260509014700 67 302 2.0 2.0 0.00 0.00 0.00 21 1001.1
20260509014157 67 301 3.0 4.0 0.00 0.00 0.00 20 1001.1
20260509013654 68 292 1.0 1.0 0.00 0.00 0.00 21 1001.1
20260509013149 68 356 0.0 1.0 0.00 0.00 0.00 20 1000.7
20260509012646 69 28 0.0 0.0 0.00 0.00 0.00 20 1001.1
20260509012143 69 28 1.0 1.0 0.00 0.00 0.00 20 1000.7
20260509011641 69 28 0.0 0.0 0.00 0.00 0.00 19 1000.7
20260509011138 69 346 1.0 1.0 0.00 0.00 0.00 19 1001.1
20260509010636 69 352 2.0 2.0 0.00 0.00 0.00 19 1000.7
20260509010132 70 346 1.0 1.0 0.00 0.00 0.00 19 1000.7
20260509005630 70 281 2.0 3.0 0.00 0.00 0.00 18 1000.7
20260509005126 70 288 3.0 3.0 0.00 0.00 0.00 18 1001.1
20260509004621 70 289 2.0 3.0 0.00 0.00 0.00 17 1000.7
20260509004119 71 289 3.0 3.0 0.00 0.00 0.00 17 1000.7
20260509003618 71 320 5.0 7.0 0.00 0.00 0.00 17 1000.7
20260509003114 71 284 3.0 4.0 0.00 0.00 0.00 17 1000.7
20260509002612 71 270 3.0 3.0 0.00 0.00 0.00 18 1000.7
20260509002109 71 263 5.0 7.0 0.00 0.00 0.00 17 1000.7
20260509001607 71 248 5.0 6.0 0.00 0.00 0.00 18 1000.3
20260509001102 71 306 4.0 4.0 0.00 0.00 0.00 17 1000.7
20260509000601 71 278 3.0 3.0 0.00 0.00 0.00 17 1000.7
20260509000056 71 284 6.0 8.0 0.00 0.00 0.00 16 1000.7
20260508235554 71 285 3.0 4.0 0.00 0.00 0.00 16 1000.7
20260508235050 72 288 2.0 3.0 0.00 0.00 0.00 16 1001.1
20260508234548 72 264 5.0 7.0 0.00 0.00 0.00 17 1001.1
20260508234044 72 298 4.0 4.0 0.00 0.00 0.00 16 1001.1
20260508233544 73 289 4.0 6.0 0.00 0.00 0.00 15 1001.5
20260508233041 73 269 4.0 6.0 0.00 0.00 0.00 16 1001.5
20260508232538 73 290 6.0 7.0 0.00 0.00 0.00 15 1001.1
20260508232035 73 271 2.0 3.0 0.00 0.00 0.00 16 1001.5
20260508231532 73 339 2.0 2.0 0.00 0.00 0.00 16 1001.1
20260508231029 73 261 4.0 7.0 0.00 0.00 0.00 14 1001.8
20260508230526 73 265 6.0 8.0 0.00 0.00 0.00 15 1001.5
20260508230022 73 292 4.0 4.0 0.00 0.00 0.00 14 1001.5
20260508225520 73 282 5.0 6.0 0.00 0.00 0.00 14 1001.5
20260508225016 73 275 4.0 4.0 0.00 0.00 0.00 15 1001.8
20260508224514 73 301 7.0 10.0 0.00 0.00 0.00 14 1001.5
20260508224011 73 267 3.0 4.0 0.00 0.00 0.00 16 1001.5
20260508223509 73 252 6.0 7.0 0.00 0.00 0.00 14 1001.5
20260508223006 73 284 4.0 7.0 0.00 0.00 0.00 14 1001.8
20260508222504 73 262 5.0 6.0 0.00 0.00 0.00 14 1001.8
20260508222000 73 279 6.0 8.0 0.00 0.00 0.00 13 1001.8
20260508221456 73 278 6.0 7.0 0.00 0.00 0.00 15 1001.8
20260508220952 73 275 2.0 2.0 0.00 0.00 0.00 15 1001.8
20260508220449 73 254 3.0 4.0 0.00 0.00 0.00 14 1001.8
20260508215945 73 275 3.0 7.0 0.00 0.00 0.00 15 1002.1
20260508215443 73 292 4.0 4.0 0.00 0.00 0.00 14 1002.1
20260508214938 73 313 3.0 3.0 0.00 0.00 0.00 15 1002.1
20260508214437 73 274 5.0 6.0 0.00 0.00 0.00 15 1001.8
20260508213932 72 277 4.0 4.0 0.00 0.00 0.00 14 1002.1
20260508213430 72 235 6.0 8.0 0.00 0.00 0.00 15 1002.1
20260508212925 72 309 2.0 2.0 0.00 0.00 0.00 15 1002.1
20260508212422 72 273 4.0 6.0 0.00 0.00 0.00 15 1002.5
20260508211912 73 273 3.0 4.0 0.00 0.00 0.00 15 1002.5
20260508211408 73 299 4.0 6.0 0.00 0.00 0.00 14 1002.5
20260508210906 74 330 2.0 3.0 0.00 0.00 0.00 15 1002.5
20260508210402 74 304 4.0 6.0 0.00 0.00 0.00 15 1002.8
20260508205858 74 279 2.0 2.0 0.00 0.00 0.00 15 1002.5
20260508205355 74 287 3.0 4.0 0.00 0.00 0.00 14 1002.5
20260508204851 74 257 3.0 4.0 0.00 0.00 0.00 13 1002.8
20260508204349 73 346 1.0 1.0 0.00 0.00 0.00 13 1002.8
20260508203844 73 257 2.0 2.0 0.00 0.00 0.00 13 1002.8
20260508203341 73 261 6.0 7.0 0.00 0.00 0.00 14 1003.2
20260508202836 73 256 3.0 4.0 0.00 0.00 0.00 15 1003.2
20260508202335 73 276 6.0 7.0 0.00 0.00 0.00 16 1003.2
20260508201832 73 265 12.0 16.0 0.00 0.00 0.00 13 1003.2
20260508201329 73 270 1.0 2.0 0.00 0.00 0.00 15 1003.2
20260508200825 73 292 7.0 10.0 0.00 0.00 0.00 15 1003.2
20260508200321 73 227 5.0 7.0 0.00 0.00 0.00 16 1003.5
20260508195817 73 241 5.0 7.0 0.00 0.00 0.00 14 1003.5
20260508195314 72 94 2.0 3.0 0.00 0.00 0.00 14 1003.8
20260508194810 72 294 5.0 6.0 0.00 0.00 0.00 14 1004.2
20260508194308 72 254 2.0 2.0 0.00 0.00 0.00 14 1004.2
20260508193805 72 277 4.0 4.0 0.00 0.00 0.00 15 1004.2
20260508193301 72 7 4.0 6.0 0.00 0.00 0.00 13 1004.2
20260508192758 72 296 1.0 2.0 0.00 0.00 0.00 14 1004.5
20260508192254 71 285 4.0 6.0 0.00 0.00 0.00 15 1004.2
20260508191752 71 280 4.0 4.0 0.00 0.00 0.00 15 1004.2
20260508191249 71 310 4.0 6.0 0.00 0.00 0.00 14 1004.5
20260508190746 70 261 3.0 3.0 0.00 0.00 0.00 16 1004.5
20260508190242 70 311 6.0 8.0 0.00 0.00 0.00 16 1004.5
20260508185739 70 309 3.0 4.0 0.00 0.00 0.00 17 1004.8
20260508185236 70 261 5.0 6.0 0.00 0.00 0.00 17 1004.8
20260508184733 70 314 2.0 4.0 0.00 0.00 0.00 17 1004.8
20260508184230 70 277 1.0 1.0 0.00 0.00 0.00 14 1004.8
20260508183727 70 271 7.0 10.0 0.00 0.00 0.00 14 1004.8
20260508183223 70 281 3.0 4.0 0.00 0.00 0.00 14 1005.3
20260508182719 70 314 7.0 9.0 0.00 0.00 0.00 14 1005.3
20260508182216 70 270 4.0 6.0 0.00 0.00 0.00 15 1005.3
20260508181712 70 258 4.0 4.0 0.00 0.00 0.00 14 1005.6
20260508181209 70 277 5.0 6.0 0.00 0.00 0.00 15 1005.3
20260508180706 70 334 4.0 6.0 0.00 0.00 0.00 14 1005.6
20260508180203 69 276 8.0 10.0 0.00 0.00 0.00 15 1005.6
20260508175659 69 263 7.0 9.0 0.00 0.00 0.00 13 1005.6
20260508175156 68 298 5.0 8.0 0.00 0.00 0.00 15 1006.0
20260508174654 68 298 6.0 8.0 0.00 0.00 0.00 15 1006.0
20260508174150 68 268 5.0 6.0 0.00 0.00 0.00 18 1006.3
20260508173647 68 213 3.0 6.0 0.00 0.00 0.00 19 1006.3
20260508173143 68 262 4.0 4.0 0.00 0.00 0.00 17 1006.3
20260508172640 68 312 3.0 4.0 0.00 0.00 0.00 17 1006.6
20260508172137 68 273 3.0 4.0 0.00 0.00 0.00 18 1006.6
20260508171634 68 287 6.0 8.0 0.00 0.00 0.00 17 1006.6
20260508171130 68 267 3.0 4.0 0.00 0.00 0.00 16 1006.6
20260508170627 68 264 7.0 10.0 0.00 0.00 0.00 16 1006.6
20260508170125 67 278 5.0 6.0 0.00 0.00 0.00 20 1006.6
20260508165622 67 275 4.0 4.0 0.00 0.00 0.00 18 1007.0
20260508165119 67 270 4.0 6.0 0.00 0.00 0.00 21 1007.0
20260508164615 67 232 3.0 4.0 0.00 0.00 0.00 20 1007.3
20260508164112 66 282 4.0 6.0 0.00 0.00 0.00 21 1007.0
20260508163609 66 243 5.0 7.0 0.00 0.00 0.00 20 1007.3
20260508163106 66 257 5.0 6.0 0.00 0.00 0.00 20 1007.3
20260508162602 66 275 2.0 3.0 0.00 0.00 0.00 24 1007.3
20260508162100 66 282 2.0 3.0 0.00 0.00 0.00 23 1007.7
20260508161557 65 242 2.0 3.0 0.00 0.00 0.00 24 1007.7
20260508161054 65 238 3.0 4.0 0.00 0.00 0.00 22 1008.0
20260508160552 65 271 4.0 4.0 0.00 0.00 0.00 21 1008.0
20260508160049 65 259 5.0 7.0 0.00 0.00 0.00 22 1008.0
20260508155546 65 268 1.0 2.0 0.00 0.00 0.00 24 1008.3
20260508155043 65 292 4.0 6.0 0.00 0.00 0.00 22 1008.3
20260508154540 65 253 2.0 3.0 0.00 0.00 0.00 22 1008.3
20260508154037 64 219 1.0 2.0 0.00 0.00 0.00 25 1008.7
20260508153534 63 201 2.0 2.0 0.00 0.00 0.00 26 1008.7
20260508153030 63 242 3.0 3.0 0.00 0.00 0.00 23 1008.7
20260508152528 62 277 2.0 2.0 0.00 0.00 0.00 23 1009.0
20260508152023 62 204 1.0 1.0 0.00 0.00 0.00 25 1008.7
20260508151520 61 241 1.0 1.0 0.00 0.00 0.00 26 1008.7
20260508151016 60 246 2.0 3.0 0.00 0.00 0.00 25 1008.7
20260508150514 59 277 2.0 2.0 0.00 0.00 0.00 26 1009.0
20260508150010 59 256 4.0 7.0 0.00 0.00 0.00 27 1009.0
20260508145507 58 325 1.0 1.0 0.00 0.00 0.00 31 1009.4
20260508145003 57 237 3.0 4.0 0.00 0.00 0.00 29 1009.4
20260508144500 56 211 2.0 3.0 0.00 0.00 0.00 30 1009.4
20260508143958 55 248 2.0 2.0 0.00 0.00 0.00 36 1009.8
20260508143455 54 264 2.0 2.0 0.00 0.00 0.00 34 1010.1
20260508142951 53 202 1.0 1.0 0.00 0.00 0.00 36 1010.1
20260508142449 52 183 1.0 1.0 0.00 0.00 0.00 36 1010.1
20260508141945 51 13 0.0 0.0 0.00 0.00 0.00 38 1010.5
20260508141441 50 251 1.0 2.0 0.00 0.00 0.00 42 1010.5
20260508140939 49 32 0.0 1.0 0.00 0.00 0.00 44 1010.5
20260508140436 48 32 0.0 0.0 0.00 0.00 0.00 45 1010.5
20260508135931 47 27 0.0 1.0 0.00 0.00 0.00 49 1010.8
20260508135429 46 27 1.0 1.0 0.00 0.00 0.00 51 1011.1
20260508134925 45 27 0.0 0.0 0.00 0.00 0.00 53 1010.8
20260508134421 43 27 1.0 2.0 0.00 0.00 0.00 54 1011.5
20260508133918 43 27 1.0 1.0 0.00 0.00 0.00 55 1011.5
20260508133416 42 27 0.0 0.0 0.00 0.00 0.00 55 1011.1
20260508132913 40 27 0.0 1.0 0.00 0.00 0.00 56 1011.5
20260508132411 39 27 1.0 1.0 0.00 0.00 0.00 58 1011.5
20260508131907 38 26 0.0 0.0 0.00 0.00 0.00 61 1011.8
20260508131403 38 26 0.0 1.0 0.00 0.00 0.00 61 1011.8
20260508130859 37 27 0.0 1.0 0.00 0.00 0.00 61 1011.8
20260508130356 36 27 0.0 0.0 0.00 0.00 0.00 64 1012.2
20260508125852 35 26 0.0 0.0 0.00 0.00 0.00 66 1012.2
20260508125348 34 26 0.0 0.0 0.00 0.00 0.00 67 1012.2
20260508124847 34 27 0.0 1.0 0.00 0.00 0.00 69 1012.2
20260508124344 34 27 0.0 0.0 0.00 0.00 0.00 71 1012.2
20260508123842 33 27 0.0 0.0 0.00 0.00 0.00 72 1012.2
20260508123340 33 27 0.0 0.0 0.00 0.00 0.00 73 1012.2
20260508122836 33 27 0.0 0.0 0.00 0.00 0.00 74 1012.5
20260508122333 32 27 0.0 0.0 0.00 0.00 0.00 74 1012.2
20260508121830 32 27 0.0 0.0 0.00 0.00 0.00 74 1012.5
20260508121328 32 27 0.0 0.0 0.00 0.00 0.00 75 1012.2
20260508120826 32 27 0.0 0.0 0.00 0.00 0.00 75 1012.2
20260508120323 31 27 0.0 0.0 0.00 0.00 0.00 75 1012.2
20260508115820 31 27 0.0 0.0 0.00 0.00 0.00 75 1012.2
20260508115318 31 27 0.0 0.0 0.00 0.00 0.00 75 1012.2
20260508114814 31 27 0.0 0.0 0.00 0.00 0.00 76 1012.2
20260508114312 30 27 0.0 0.0 0.00 0.00 0.00 75 1012.2
20260508113808 30 27 0.0 0.0 0.00 0.00 0.00 75 1012.2
20260508113307 30 27 0.0 0.0 0.00 0.00 0.00 75 1012.2
20260508112803 30 27 0.0 0.0 0.00 0.00 0.00 75 1012.2
20260508112300 30 27 0.0 0.0 0.00 0.00 0.00 75 1012.2
20260508111755 30 27 0.0 0.0 0.00 0.00 0.00 75 1012.2
20260508111254 30 27 0.0 0.0 0.00 0.00 0.00 75 1012.2
20260508110750 30 27 0.0 0.0 0.00 0.00 0.00 75 1012.2
20260508110248 30 27 0.0 0.0 0.00 0.00 0.00 75 1012.2
20260508105748 30 27 0.0 0.0 0.00 0.00 0.00 74 1012.2
20260508105245 30 27 0.0 0.0 0.00 0.00 0.00 74 1011.8
20260508104742 31 27 0.0 0.0 0.00 0.00 0.00 74 1012.2
20260508104239 31 27 0.0 0.0 0.00 0.00 0.00 74 1012.2
20260508103736 31 27 0.0 0.0 0.00 0.00 0.00 74 1012.2
20260508103233 31 27 0.0 0.0 0.00 0.00 0.00 74 1012.2
20260508102730 31 27 0.0 0.0 0.00 0.00 0.00 73 1012.2
20260508102228 31 27 0.0 0.0 0.00 0.00 0.00 73 1012.2
20260508101725 31 27 0.0 0.0 0.00 0.00 0.00 73 1012.2
20260508101222 31 27 0.0 0.0 0.00 0.00 0.00 73 1012.2
20260508100720 31 27 0.0 0.0 0.00 0.00 0.00 73 1012.2
20260508100218 31 27 0.0 0.0 0.00 0.00 0.00 73 1012.2
20260508095713 31 27 0.0 0.0 0.00 0.00 0.00 72 1012.2
20260508095212 31 27 0.0 0.0 0.00 0.00 0.00 72 1012.2
20260508094708 32 27 0.0 0.0 0.00 0.00 0.00 72 1012.2
20260508094205 32 27 0.0 0.0 0.00 0.00 0.00 72 1012.2
20260508093702 32 27 0.0 0.0 0.00 0.00 0.00 72 1012.2
20260508093200 32 27 0.0 0.0 0.00 0.00 0.00 71 1012.2
20260508092657 32 27 0.0 0.0 0.00 0.00 0.00 71 1012.2
20260508092155 32 27 0.0 0.0 0.00 0.00 0.00 71 1012.2
20260508091652 32 27 0.0 0.0 0.00 0.00 0.00 70 1012.2
20260508091149 32 27 0.0 0.0 0.00 0.00 0.00 70 1012.5
20260508090647 32 27 0.0 0.0 0.00 0.00 0.00 70 1012.2